SCP
0 -0 0 0 0 0 0 0 0 -0 -0 0 0 0 0 0 0 0 0 0 0 0 0 0 0 0 0 0 0 0 0 0 0 0 0 0 0 0 0 0 0 0 0 0
0 0 0 0 0 0 0 -0 -0 -0 0 0 0 0 0 0 0 0 0 0 0 0 0 0 0 0 0 0 0 0 0 0 0 0 0 0 0 0 0 0 0 0 0 0
0 0 0 0 0 0 0 0 0 0 0 0 0 0 0 0 0 0 0 0 0 0 0 0 0 0 0 0 0 0 0 0 0 0 0 0 0 0 0 0 0 0 0 0
0 0 0 0 0 0 0 0 0 0 0 0 0 0 0 0 0 0 0 0 0 0 0 0 0 0 0 0 0 0 0 0 0 0 0 0 0 0 0 0 0 0 0 0
0 0 0 0 0 0 0 0 0 0 0 0 0 0 0 0 0 0 0 0 0 0 0 0 0 0 0 0 0 0 0 0 0 0 0 0 0 0 0 0 0 0 0 0
0 0 0 0 0 0 0 0 0 0 0 0 0 0 0 0 0 0 0 0 0 0 0 0 0 0 0 0 0 0 0 0 0 0 0 0 0 0 0 0 0 0 0 0
0 0 0 0 0 0 0 0 0 0 0 0 0 0 0 0 0 0 0 0 0 0 0 0 0 0 0 0 0 0 0 0 0 0 0 0 0 0 0 0 0 0 0 0
0 0 0 0 0 0 0 0 0 0 0 0 0 0 0 0 0 0 0 0 0 0 0 0 0 0 0 0 0 0 0 0 0 0 0 0 0 0 0 0 0 0 0 0
0 0 0 0 0 0 0 0 0 0 0 0 0 0 0 0 0 0 0 0 0 0 0 0 0 0 0 0 0 0 0 0 0 0 0 0 0 0 0 0 0 0 0 0
0 0 0 0 0 -0 0 0 0 0 0 0 0 0 0 0 0 0 0 0 0 0 0 0 0 0 0 0 0 0 0 0 0 0 0 0 0 0 0 0 0 0 0 0
-0 0 0 0 0 0 0 0 0 0 0 0 0 0 0 0 0 0 0 0 0 0 0 0 0 0 0 0 0 0 0 0 0 0 0 0 0 0 0 0 0 0 0 0
-0 0 0 0 0 0 0 0 0 0 0 0 0 0 0 0 0 0 0 0 0 0 0 0 0 0 0 0 0 0 0 0 0 0 0 0 0 0 0 0 0 0 0 0
0 0 0 0 0 0 0 0 0 0 0 0 0 0 0 0 0 0 0 0 0 0 0 0 0 0 0 0 0 0 0 0 0 0 0 0 0 0 0 0 0 0 0 0
0 0 0 0 0 0 0 0 0 0 0 0 0 0 0 0 0 0 0 0 0 0 0 0 0 0 0 0 0 0 0 0 0 0 0 0 0 0 0 0 0 0 0 0
0 0 0 0 0 0 0 0 0 0 0 0 0 0 0 0 0 0 0 0 0 0 0 0 0 0 0 0 0 0 0 0 0 0 0 0 0 0 0 0 0 0 0 0
0 0 0 0 0 0 0 0 0 0 0 0 0 0 0 0 0 0 0 0 0 0 0 0 0 0 0 0 0 0 0 0 0 0 0 0 0 0 0 0 0 0 0 0
0 0 0 0 0 0 0 0 0 0 0 0 0 0 0 0 0 0 0 0 0 0 0 0 0 0 0 0 0 0 0 0 0 0 0 0 0 0 0 0 0 0 0 0
0 0 0 0 0 0 0 0 0 0 0 0 0 0 0 0 0 0 0 0 0 0 0 0 0 0 0 0 0 0 0 0 0 0 0 0 0 0 0 0 0 0 0 0
0 0 0 0 0 0 0 0 0 0 0 0 0 0 0 0 0 0 0 0 0 0 0 0 0 0 0 0 0 0 0 0 -0 -0 0 0 0 0 0 0 0 0 0 0
0 0 0 0 0 0 0 0 0 0 0 0 0 0 0 0 0 0 0 0 0 0 0 0 0 0 0 0 0 0 0 0 -0 -0 0 0 0 0 0 0 0 0 0 0
0 0 0 0 0 0 0 0 0 0 0 0 0 0 0 0 0 0 0 0 0 0 0 0 0 0 0 0 0 0 0 0 0 -0 -0 -0 -0 0 0 0 0 0 0 0
0 0 0 0 0 0 0 0 0 0 0 0 0 0 0 0 0 0 0 0 0 0 0 0 0 0 0 0 0 0 0 0 0 0 -0 -0 -0 0 0 0 0 0 0 0
0 0 0 0 0 0 0 0 0 0 0 0 0 0 0 0 0 0 0 0 0 0 0 0 0 0 0 0 0 0 0 0 0 0 0 0 0 0 0 0 0 0 0 0
0 0 0 0 0 0 0 0 0 0 0 0 0 0 0 0 0 0 0 0 0 0 0 0 0 0 0 0 0 0 0 0 0 0 0 0 0 0 0 0 0 0 0 0
0 0 0 0 0 0 0 0 0 0 0 0 0 0 0 0 0 0 0 0 0 0 0 0 0 0 0 0 0 0 0 0 0 0 0 0 0 0 0 0 0 0 0 0
0 0 0 0 0 0 0 0 0 0 0 0 0 0 0 0 0 0 0 0 0 0 0 0 0 0 0 0 0 0 0 0 0 0 0 0 0 0 0 0 0 0 0 0
-0 -0 0 0 0 0 0 0 0 0 0 0 0 0 0 0 0 0 0 0 0 0 0 0 0 0 0 0 0 0 0 0 0 0 0 0 0 0 0 0 0 0 0 0
Wind_Speed
5 5 4 4 5 4 5 6 6 7 6 7 4 3 4 4 3 4 4 4 3 2 2 2 3 3 3 3 2 1 1 1 1 1 1 2 2 2 2 2 1 2 2 2
5 4 3 5 6 6 6 5 6 6 8 6 4 2 3 4 3 3 3 3 3 3 3 2 3 3 3 2 2 2 1 1 1 1 2 2 2 2 2 2 1 2 2 2
4 5 4 6 6 6 4 4 4 7 8 3 3 4 3 3 3 1 2 2 2 2 2 2 3 3 2 2 2 2 1 1 1 2 2 2 2 2 2 2 2 2 2 2
2 4 4 6 1 2 3 4 4 4 4 2 3 3 3 2 1 2 2 2 3 3 3 3 3 3 3 2 2 2 2 1 1 2 2 2 2 2 2 1 2 2 2 1
1 2 8 7 2 2 3 6 4 5 5 3 2 2 3 2 1 1 2 2 2 2 2 3 3 3 3 3 3 2 2 2 1 1 2 2 2 1 1 1 1 1 1 2
2 2 7 5 2 1 1 5 4 3 4 3 1 1 4 2 2 2 2 2 2 2 2 2 3 3 3 3 3 3 2 1 1 1 1 1 1 1 1 1 1 1 1 1
3 5 9 5 2 2 2 7 3 3 4 2 3 4 3 2 2 2 2 3 3 2 2 3 3 2 2 3 3 3 2 2 1 1 1 1 1 1 1 1 1 1 1 1
4 5 10 2 4 5 7 2 2 3 3 3 3 3 2 2 2 2 2 3 3 2 3 3 3 2 2 3 3 2 2 2 2 1 1 1 1 1 1 1 1 1 1 1
9 9 4 4 6 4 2 3 3 3 3 3 3 3 2 2 2 2 2 2 2 2 3 3 3 2 2 3 2 2 1 1 1 1 1 1 1 1 1 1 1 1 1 1
5 9 6 6 5 4 3 4 3 3 3 3 3 3 3 2 2 2 2 2 2 2 2 3 3 3 2 3 2 1 1 1 1 1 1 1 0 0 1 1 1 1 1 1
6 7 5 6 7 6 4 3 3 2 3 4 4 3 3 3 3 2 2 2 1 1 2 3 3 3 3 2 1 1 1 0 0 0 0 0 1 0 0 1 2 2 1 2
9 7 6 6 5 5 4 5 4 3 2 2 3 3 3 3 2 2 2 2 1 2 2 3 3 3 3 2 1 1 1 0 0 0 0 0 0 1 2 1 1 1 1 1
7 4 5 4 3 3 4 4 4 3 3 2 2 2 2 2 2 1 1 2 2 2 2 2 3 3 3 2 2 1 1 1 1 1 1 1 1 1 0 2 2 1 1 1
5 3 3 4 4 4 3 3 1 1 1 2 2 1 1 1 1 1 2 2 2 1 2 2 2 4 3 2 2 1 1 1 1 1 1 1 1 1 1 1 1 1 1 1
6 6 6 3 2 2 2 1 1 1 1 1 1 1 1 2 2 2 2 2 1 1 2 2 3 4 3 2 2 2 1 1 1 1 1 1 1 1 1 1 1 1 1 1
3 3 3 3 4 3 2 3 3 3 2 2 1 2 2 2 2 2 2 1 1 2 3 3 3 4 3 2 2 1 1 2 1 1 1 1 1 1 1 1 1 1 0 0
4 4 5 5 5 4 4 4 4 4 3 3 3 2 1 1 1 2 2 2 2 3 3 2 3 3 3 2 2 1 1 1 2 1 1 2 2 2 1 1 1 1 0 1
7 7 6 6 5 5 4 4 4 4 4 3 2 2 2 2 2 3 2 2 2 3 3 2 3 3 2 2 1 1 1 1 1 2 1 1 2 2 1 1 1 1 0 0
4 5 5 4 4 4 4 4 3 3 3 2 2 2 3 3 2 2 2 1 2 3 3 3 4 2 2 2 2 1 1 1 1 1 1 2 1 1 1 1 1 1 1 0
3 3 4 3 3 3 3 3 2 2 2 2 2 2 2 2 2 1 1 2 3 3 3 3 2 2 2 2 1 0 1 1 2 1 1 2 2 1 1 1 1 1 1 0
3 3 3 3 3 3 3 3 3 3 2 2 3 3 2 2 2 1 1 2 3 3 3 4 2 1 1 1 1 0 1 1 1 2 2 2 2 1 1 1 1 1 1 0
3 3 3 3 3 3 2 2 3 3 2 2 2 2 2 2 2 2 2 3 3 4 2 2 1 2 2 1 0 1 1 1 1 1 1 1 2 2 2 1 1 1 1 1
3 3 3 3 3 3 2 2 2 3 3 3 3 3 3 2 2 2 3 2 2 3 2 2 3 3 2 0 1 1 1 1 1 1 1 1 1 2 2 1 1 1 1 1
2 3 3 2 2 2 2 2 2 2 2 2 3 3 2 1 2 2 2 3 4 4 2 3 4 3 1 1 1 1 1 1 1 1 1 1 1 1 1 1 1 1 1 1
2 2 2 3 3 3 3 2 1 1 1 1 2 2 2 2 2 2 2 2 3 2 2 3 3 2 1 1 0 0 1 1 1 1 1 1 1 1 1 1 1 1 1 1
2 2 3 3 3 3 2 2 2 2 2 1 1 1 1 1 1 1 1 2 2 2 1 1 1 1 0 0 0 0 0 0 0 1 1 1 1 1 1 1 1 0 0 0
2 2 1 1 2 2 2 3 3 3 2 2 2 2 2 1 1 1 1 1 1 1 1 1 0 0 0 0 0 0 0 0 0 1 1 1 1 1 1 1 1 0 0 0
Wind_Direction
266 271 255 252 267 250 218 218 221 252 256 272 292 300 311 322 341 3 17 24 29 28 20 23 17 14 12 11 9 27 82 112 134 118 115 115 119 132 131 131 148 162 154 159
300 298 278 271 271 250 242 239 242 262 273 277 301 330 332 330 344 4 7 11 17 16 15 16 7 357 358 359 360 20 52 86 87 98 102 109 117 116 120 120 122 134 140 149
288 319 343 283 255 223 223 227 213 238 254 290 321 319 316 314 328 355 353 356 3 360 358 354 343 339 339 339 3 24 34 55 72 87 90 100 105 104 113 125 120 120 128 132
302 7 261 253 255 213 227 249 236 251 277 278 270 294 311 312 319 356 357 356 351 352 351 353 353 349 346 357 15 22 21 32 52 90 98 99 104 113 122 120 128 129 126 117
149 277 280 290 266 201 215 274 248 238 265 283 313 350 332 337 14 348 342 339 337 337 340 355 354 352 359 6 8 16 17 16 26 93 114 115 118 124 117 116 109 121 119 121
156 223 253 262 286 291 105 281 259 232 250 268 351 309 284 322 360 348 345 341 337 341 360 2 346 356 15 5 5 359 349 344 18 94 126 138 149 143 124 119 119 114 110 117
200 237 264 258 278 103 165 256 275 234 240 240 229 233 261 299 321 328 330 329 338 351 1 348 342 5 15 0 345 333 345 1 31 68 109 128 122 127 128 117 108 114 114 105
177 216 256 224 144 191 223 256 246 246 244 232 241 260 271 274 284 309 319 328 337 349 349 348 350 3 1 346 329 344 6 13 17 37 84 103 108 96 108 125 127 134 120 105
198 218 246 198 213 233 210 224 243 242 251 235 242 246 258 266 271 291 302 316 331 339 341 346 348 356 343 327 333 355 20 18 17 23 49 95 136 149 150 154 163 166 159 163
246 256 251 247 252 253 230 229 239 234 236 221 226 237 256 270 276 284 300 307 318 333 334 334 338 343 325 321 335 358 10 18 36 59 50 33 36 163 172 181 192 191 188 188
250 267 288 265 241 239 239 242 244 244 232 216 212 234 240 252 266 274 286 298 307 308 311 315 327 331 328 326 333 349 341 343 347 40 94 51 10 293 236 231 217 213 210 203
225 221 208 241 235 221 223 238 235 228 240 235 209 226 231 237 250 255 266 273 283 296 302 310 319 319 318 319 311 306 312 299 272 234 166 153 130 31 7 311 277 265 245 232
227 220 217 244 237 220 219 232 233 219 208 215 226 218 215 224 240 238 262 266 261 273 287 301 309 308 309 310 304 282 260 256 242 223 201 194 173 150 31 5 359 321 285 274
229 211 238 227 226 224 216 220 206 190 201 206 219 218 216 224 234 248 261 266 270 279 289 293 298 300 303 303 295 281 260 248 241 224 209 203 199 193 197 207 294 324 321 304
234 219 222 227 213 211 200 167 151 212 218 240 202 203 208 219 242 260 271 278 286 284 285 291 294 295 301 295 280 265 253 233 219 202 195 193 191 185 183 188 203 266 322 344
234 231 215 211 215 209 186 183 195 219 219 219 230 234 231 231 248 269 272 257 253 275 281 284 283 290 298 289 276 269 252 241 234 189 179 179 178 174 176 180 185 199 246 321
191 216 213 218 219 214 209 208 209 216 218 222 231 235 238 242 270 284 287 285 273 277 279 272 280 294 296 289 273 259 248 231 219 190 179 181 180 180 180 182 184 192 231 263
215 217 212 204 203 206 214 212 210 213 216 221 219 212 214 221 239 265 284 302 312 309 298 287 288 299 295 287 277 250 230 213 180 171 175 178 174 174 174 176 179 183 185 288
211 212 211 207 199 193 202 212 217 217 218 205 198 216 230 235 242 261 282 297 291 293 299 298 303 317 300 281 286 236 208 178 160 159 167 178 164 155 163 172 179 177 162 137
210 204 198 196 187 188 201 212 209 209 212 201 199 214 242 252 249 255 264 263 261 269 285 295 306 304 292 278 277 201 178 167 161 159 161 163 161 164 173 178 176 171 167 171
209 198 187 187 195 203 203 201 197 209 216 200 200 215 236 256 250 235 244 273 286 291 296 299 311 298 285 274 253 154 161 158 161 164 166 162 160 169 173 168 171 175 175 193
203 190 191 192 193 210 212 199 196 203 207 210 213 214 221 244 248 249 245 248 275 292 305 295 294 289 290 284 153 158 155 157 159 163 168 169 172 177 175 172 174 179 187 205
200 192 195 199 197 201 203 198 197 197 204 209 214 221 226 233 229 233 268 270 277 287 299 278 288 294 295 352 131 152 154 158 162 168 173 173 173 176 179 181 183 186 200 213
194 194 197 185 159 165 205 225 214 212 214 221 226 229 224 233 256 244 252 274 283 289 291 284 294 300 320 78 117 137 148 155 158 159 159 155 155 160 166 171 180 192 202 214
190 193 188 175 184 205 213 214 217 214 211 230 247 245 233 220 230 256 267 269 278 294 304 291 292 309 18 70 118 151 174 178 168 158 160 157 155 155 158 159 171 185 198 216
188 199 206 207 209 209 201 197 206 210 205 228 255 249 244 241 234 239 253 269 270 286 301 296 303 320 356 155 152 157 165 183 92 110 130 139 145 150 154 159 173 197 221 236
185 191 198 225 227 210 202 200 204 213 210 213 238 246 240 234 229 237 250 265 276 282 290 288 286 303 239 152 139 134 120 106 113 127 136 138 146 154 161 171 185 196 216 230